Weather at Samsun Çarşamba Airport

Public forecast

Using degrees Celsius for public forecast. Weather courtesy of forecast.io.

Current aviation weather report (METAR) for Samsun Çarşamba Airport

Retrieved 2021/01/21 16:50 UTC (11 minutes ago):

LTFH 211650Z 18007KT CAVOK 07/M05 Q1030 NOSIG

Aviation forecast (TAF) for Samsun Çarşamba Airport

Forecast is more than 12 hours old.

Retrieved 2010/09/30 10:40 UTC (10 years ago):

TAF LTFH 301040Z 3012/0112 32012KT 9999 SCT036 BKN100 TEMPO 3013/3017 -SHRA BKN030 BKN090 PROB40 TEMPO 3018/3021 -TSRA FEW025CB BKN030